Weather History for KGGW - May, 2013

Change the Weather History Date:

Sunday, May 19, 2013

  Actual Average Record
Temperature  
Mean Temperature 62 °F 56 °F  
Max Temperature 69 °F 69 °F 94 °F (1992)
Min Temperature 54 °F 43 °F 26 °F (1968)
Degree Days  
Heating Degree Days 3 9  
Month to date heating degree days 170 231  
Since 1 July heating degree days 8429 8238  
Cooling Degree Days 0 0  
Month to date cooling degree days 9 0  
Year to date cooling degree days 9 1  
Growing Degree Days 12 (Base 50)    
Moisture  
Dew Point 50 °F    
Average Humidity 67    
Maximum Humidity 93    
Minimum Humidity 40    
Precipitation  
Precipitation T in 0.07 in 1.00 in (1903)
Month to date precipitation 0.36 1.02  
Year to date precipitation 3.17 2.92  
Snow  
Snow 0.00 in 0.10 in 0.00 in (2002)
Month to date snowfall 0.0 1.0  
Since 1 July snowfall 62.3 34.6  
Snow Depth 0.00 in    
Sea Level Pressure  
Sea Level Pressure 29.93 in    
Wind  
Wind Speed 11 mph (NE)    
Max Wind Speed 23 mph    
Max Gust Speed 29 mph    
Visibility 8 miles    
Events      
T = Trace of Precipitation, MM = Missing Value Source: NWS Daily Summary

Daily Weather History Graph

Daily Weather History Graph

Search for Another Location

Airport or City:

Trip Planner

Search our weather history database for the weather conditions in past years. The results will help you decide how hot, cold, wet, or windy it might be!

Date:

Astronomy

May. 19, 2013 Rise Set
Actual Time 5:21 AM MDT 8:44 PM MDT
Civil Twilight 4:43 AM MDT 9:23 PM MDT
Nautical Twilight 3:53 AM MDT 10:13 PM MDT
Astronomical Twilight 2:48 AM MDT 11:20 PM MDT
Moon 2:25 PM MDT (5/19) 2:15 AM MDT (5/19)
Length of Visible Light 16h 39m
Length of Day
15h 23m
Waxing Gibbous, 66% of the Moon is Illuminated
May 19
Waxing Gibbous
May 24
Full
May 31
Last Quarter
Jun 8
New
Jun 16
First Quarter

Hourly Weather History & Observations

Time (MDT) Temp. Dew Point Humidity Pressure Visibility Wind Dir Wind Speed Gust Speed Precip Events Conditions
12:53 AM 55.9 °F 53.1 °F 90% 29.88 in 10.0 mi NNE 8.1 mph - N/A   Overcast
1:53 AM 55.9 °F 53.1 °F 90% 29.88 in 10.0 mi NE 8.1 mph - 0.00 in   Overcast
2:53 AM 55.0 °F 52.0 °F 89% 29.88 in 10.0 mi ENE 9.2 mph - N/A   Overcast
3:53 AM 55.4 °F 51.8 °F 88% 29.89 in 7.0 mi NE 6.9 mph - N/A   Overcast
4:53 AM 55.0 °F 53.1 °F 93% 29.91 in 6.0 mi NNE 5.8 mph - N/A   Overcast
5:23 AM 55.4 °F 53.6 °F 94% 29.90 in 6.0 mi NNE 8.1 mph - N/A   Overcast
5:45 AM 55.4 °F 53.6 °F 94% 29.90 in 6.0 mi NNE 5.8 mph - N/A   Overcast
5:53 AM 55.4 °F 53.6 °F 94% 29.90 in 5.0 mi NNE 5.8 mph - N/A   Overcast
6:20 AM 55.4 °F 53.6 °F 94% 29.91 in 3.0 mi NNE 6.9 mph - N/A   Overcast
6:27 AM 55.4 °F 53.6 °F 94% 29.91 in 3.0 mi NNE 6.9 mph - N/A   Overcast
6:53 AM 55.9 °F 53.1 °F 90% 29.91 in 4.0 mi NE 9.2 mph - N/A   Overcast
7:41 AM 55.4 °F 53.6 °F 94% 29.91 in 7.0 mi NNE 9.2 mph - N/A   Overcast
7:53 AM 55.9 °F 53.1 °F 90% 29.92 in 7.0 mi NE 8.1 mph - N/A   Overcast
8:42 AM 57.2 °F 53.6 °F 88% 29.92 in 10.0 mi NE 9.2 mph - N/A   Overcast
8:53 AM 57.0 °F 54.0 °F 89% 29.92 in 10.0 mi NE 9.2 mph - N/A   Overcast
9:53 AM 57.9 °F 53.1 °F 84% 29.94 in 9.0 mi NE 11.5 mph - N/A   Overcast
10:53 AM 60.1 °F 53.1 °F 78% 29.94 in 10.0 mi NE 13.8 mph - N/A   Overcast
11:53 AM 60.1 °F 53.1 °F 78% 29.94 in 10.0 mi NE 12.7 mph - N/A   Overcast
12:53 PM 62.6 °F 51.8 °F 68% 29.92 in 10.0 mi NNE 18.4 mph - N/A   Overcast
1:53 PM 64.9 °F 48.9 °F 56% 29.92 in 10.0 mi NE 13.8 mph - N/A   Overcast
2:53 PM 64.0 °F 48.0 °F 56% 29.92 in 10.0 mi NE 16.1 mph - N/A   Overcast
3:53 PM 68.0 °F 46.0 °F 45% 29.92 in 10.0 mi NNE 16.1 mph 24.2 mph N/A   Mostly Cloudy
4:53 PM 66.9 °F 43.0 °F 42% 29.93 in 10.0 mi NE 19.6 mph 27.6 mph N/A   Overcast
5:53 PM 66.9 °F 41.0 °F 39% 29.92 in 10.0 mi NE 19.6 mph - N/A   Clear
6:53 PM 64.9 °F 41.0 °F 42% 29.94 in 10.0 mi NE 16.1 mph - N/A   Clear
7:53 PM 63.0 °F 41.0 °F 45% 29.96 in 10.0 mi NE 16.1 mph 24.2 mph N/A   Clear
8:53 PM 60.1 °F 42.1 °F 51% 29.98 in 10.0 mi NNE 8.1 mph - N/A   Clear
9:53 PM 55.9 °F 45.0 °F 67% 30.01 in 10.0 mi ENE 3.5 mph - N/A   Scattered Clouds
10:53 PM 54.0 °F 45.0 °F 72% 30.01 in 10.0 mi NW 4.6 mph - N/A   Overcast
11:53 PM 54.0 °F 45.0 °F 72% 30.00 in 10.0 mi NNW 6.9 mph - N/A   Mostly Cloudy